North Padre Island, TX

8:39 PM CDT on March 30, 2017 (GMT -0500)
North Padre Island

Weather History for KOPM - February, 2014

Change the Weather History Date:

Friday, February 7, 2014

  Actual Average (KHRL) Record (KHRL)
Temperature  
Mean Temperature 48 °F -  
Max Temperature 53 °F 70 °F 90 °F (1957)
Min Temperature 44 °F 51 °F 28 °F (1955)
Degree Days  
Heating Degree Days 16    
Moisture  
Dew Point 47 °F    
Average Humidity 95    
Maximum Humidity 100    
Minimum Humidity 82    
Precipitation  
Precipitation 0.00 in - - ()
Sea Level Pressure  
Sea Level Pressure 30.18 in    
Wind  
Wind Speed 14 mph (NNW)    
Max Wind Speed 28 mph    
Max Gust Speed 33 mph    
Visibility 4 miles    
Events      
Averages and records for this station are not official NWS values.
T = Trace of Precipitation, MM = Missing Value Source: NWS Daily Summary

Daily Weather History Graph

Daily Weather History Graph

Search for Another Location

Airport or City:

Trip Planner

Search our weather history database for the weather conditions in past years. The results will help you decide how hot, cold, wet, or windy it might be!

Date:

Astronomy

Feb. 07, 2014 Rise Set
Actual Time 7:09 AM CST 6:14 PM CST
Civil Twilight 6:45 AM CST 6:38 PM CST
Nautical Twilight 6:18 AM CST 7:06 PM CST
Astronomical Twilight 5:50 AM CST 7:33 PM CST
Moon 12:32 PM CST (2/7) 1:22 AM CST (2/7)
Length of Visible Light 11h 52m
Length of Day
11h 04m
First Quarter, 59% of the Moon is Illuminated
Feb 7
First Quarter
Feb 14
Full
Feb 22
Last Quarter
Mar 1
New
Mar 8
First Quarter

Hourly Weather History & Observations

Time (CST) Temp. Windchill Dew Point Humidity Pressure Visibility Wind Dir Wind Speed Gust Speed Precip Events Conditions
12:15 AM 48.2 °F - 42.8 °F 82% 30.26 in 7.0 mi NNW 13.8 mph - N/A   Overcast
12:35 AM 46.4 °F 40.7 °F 42.8 °F 87% 30.25 in 6.0 mi North 12.7 mph 19.6 mph N/A   Haze
12:55 AM 46.4 °F 40.7 °F 42.8 °F 87% 30.25 in 6.0 mi North 12.7 mph 19.6 mph N/A   Haze
1:15 AM 46.4 °F 41.1 °F 42.8 °F 87% 30.24 in 5.0 mi North 11.5 mph 21.9 mph N/A   Overcast
1:35 AM 46.4 °F 40.7 °F 44.6 °F 93% 30.23 in 5.0 mi North 12.7 mph 21.9 mph N/A   Overcast
1:55 AM 48.2 °F - 44.6 °F 87% 30.22 in 5.0 mi North 12.7 mph 21.9 mph N/A   Overcast
2:15 AM 48.2 °F - 44.6 °F 87% 30.22 in 5.0 mi North 11.5 mph 20.7 mph N/A   Overcast
2:35 AM 48.2 °F - 46.4 °F 93% 30.22 in 4.0 mi North 11.5 mph 19.6 mph N/A   Overcast
2:55 AM 48.2 °F - 46.4 °F 93% 30.21 in 5.0 mi North 11.5 mph 19.6 mph N/A   Overcast
3:15 AM 48.2 °F - 46.4 °F 93% 30.21 in 5.0 mi North 10.4 mph 20.7 mph N/A   Overcast
3:35 AM 50.0 °F - 46.4 °F 87% 30.20 in 5.0 mi North 11.5 mph 20.7 mph N/A   Overcast
3:55 AM 50.0 °F - 46.4 °F 87% 30.20 in 5.0 mi North 10.4 mph 18.4 mph N/A   Overcast
4:15 AM 50.0 °F - 46.4 °F 87% 30.20 in 5.0 mi North 11.5 mph 21.9 mph N/A   Overcast
4:35 AM 50.0 °F - 48.2 °F 94% 30.19 in 5.0 mi North 9.2 mph 18.4 mph N/A   Overcast
4:55 AM 50.0 °F - 48.2 °F 94% 30.18 in 5.0 mi NNW 12.7 mph 18.4 mph N/A   Overcast
5:15 AM 50.0 °F - 48.2 °F 94% 30.18 in 5.0 mi North 11.5 mph 18.4 mph N/A   Overcast
5:35 AM 50.0 °F - 48.2 °F 94% 30.17 in 6.0 mi NNW 10.4 mph 18.4 mph N/A   Overcast
5:55 AM 50.0 °F - 48.2 °F 94% 30.18 in 5.0 mi NNW 11.5 mph 21.9 mph N/A   Overcast
6:15 AM 50.0 °F - 48.2 °F 94% 30.17 in 6.0 mi NNW 12.7 mph - N/A   Overcast
6:35 AM 50.0 °F - 48.2 °F 94% 30.18 in 5.0 mi NNW 15.0 mph - N/A   Overcast
6:55 AM 50.0 °F - 48.2 °F 94% 30.18 in 5.0 mi NNW 13.8 mph 20.7 mph N/A   Overcast
7:15 AM 50.0 °F - 50.0 °F 100% 30.18 in 4.0 mi NNW 13.8 mph 20.7 mph N/A   Overcast
7:35 AM 51.8 °F - 50.0 °F 94% 30.18 in 3.0 mi NNW 15.0 mph - N/A   Overcast
7:55 AM 50.0 °F - 50.0 °F 100% 30.19 in 2.5 mi NNW 17.3 mph - N/A   Overcast
8:15 AM 50.0 °F - 50.0 °F 100% 30.19 in 3.0 mi NNW 16.1 mph 21.9 mph N/A   Overcast
8:35 AM 50.0 °F - 48.2 °F 94% 30.19 in 3.0 mi NNW 17.3 mph - N/A   Mostly Cloudy
8:55 AM 50.0 °F - 48.2 °F 94% 30.20 in 4.0 mi NNW 17.3 mph - N/A   Mostly Cloudy
9:15 AM 50.0 °F - 48.2 °F 94% 30.19 in 3.0 mi NNW 12.7 mph 20.7 mph N/A   Overcast
9:35 AM 50.0 °F - 50.0 °F 100% 30.19 in 6.0 mi North 10.4 mph 19.6 mph N/A   Mostly Cloudy
9:55 AM 51.8 °F - 50.0 °F 94% 30.19 in 6.0 mi North 11.5 mph 19.6 mph N/A   Mostly Cloudy
10:15 AM 53.6 °F - 51.8 °F 94% 30.19 in 6.0 mi NNW 12.7 mph - N/A   Overcast
10:35 AM 51.8 °F - 50.0 °F 94% 30.20 in 4.0 mi NNW 16.1 mph - N/A   Overcast
10:55 AM 51.8 °F - 50.0 °F 94% 30.20 in 4.0 mi NNW 17.3 mph - N/A   Overcast
11:15 AM 51.8 °F - 50.0 °F 94% 30.19 in 3.0 mi NNW 15.0 mph 21.9 mph N/A   Overcast
11:35 AM 51.8 °F - 50.0 °F 94% 30.19 in 3.0 mi NNW 16.1 mph - N/A   Overcast
11:55 AM 50.0 °F - 48.2 °F 94% 30.18 in 4.0 mi NNW 17.3 mph - N/A   Overcast
12:15 PM 50.0 °F - 48.2 °F 94% 30.16 in 4.0 mi NNW 15.0 mph - N/A   Overcast
12:35 PM 50.0 °F - 48.2 °F 94% 30.16 in 6.0 mi NNW 15.0 mph 21.9 mph N/A   Overcast
12:55 PM 50.0 °F - 48.2 °F 94% 30.14 in 5.0 mi NNW 13.8 mph 21.9 mph N/A   Overcast
1:15 PM 50.0 °F - 48.2 °F 94% 30.14 in 3.0 mi NNW 16.1 mph 25.3 mph N/A   Overcast
1:35 PM 48.2 °F - 48.2 °F 100% 30.13 in 2.5 mi NNW 21.9 mph - N/A   Overcast
1:55 PM 48.2 °F - 46.4 °F 93% 30.13 in 2.0 mi NNW 20.7 mph - N/A   Overcast
2:15 PM 48.2 °F - 46.4 °F 93% 30.12 in 2.5 mi NNW 20.7 mph 27.6 mph N/A   Overcast
2:35 PM 46.4 °F 39.2 °F 46.4 °F 100% 30.12 in 2.0 mi NNW 18.4 mph 26.5 mph N/A   Overcast
2:55 PM 46.4 °F 39.2 °F 46.4 °F 100% 30.12 in 2.0 mi NNW 18.4 mph 26.5 mph N/A   Overcast
3:15 PM 46.4 °F 38.7 °F 44.6 °F 93% 30.12 in 2.0 mi NNW 20.7 mph 27.6 mph N/A   Overcast
3:35 PM 44.6 °F 36.4 °F 44.6 °F 100% 30.12 in 2.5 mi NNW 20.7 mph - N/A   Overcast
3:55 PM 46.4 °F 38.7 °F 44.6 °F 93% 30.12 in 2.0 mi NNW 20.7 mph 27.6 mph N/A   Overcast
4:15 PM 44.6 °F 36.9 °F 44.6 °F 100% 30.13 in 2.5 mi NNW 18.4 mph 28.8 mph N/A   Overcast
4:35 PM 44.6 °F 36.4 °F 44.6 °F 100% 30.13 in 1.8 mi NNW 20.7 mph 29.9 mph N/A   Overcast
4:55 PM 44.6 °F 35.7 °F 44.6 °F 100% 30.14 in 1.0 mi NNW 24.2 mph - N/A   Overcast
5:15 PM 44.6 °F 35.9 °F 44.6 °F 100% 30.15 in 0.8 mi NNW 23.0 mph - N/A   Overcast
5:35 PM 44.6 °F 35.9 °F 42.8 °F 93% 30.15 in 1.8 mi NNW 23.0 mph 32.2 mph N/A   Overcast
5:55 PM 44.6 °F 36.1 °F 42.8 °F 93% 30.15 in 2.5 mi NNW 21.9 mph 31.1 mph N/A   Overcast
6:15 PM 44.6 °F 36.1 °F 44.6 °F 100% 30.16 in 2.5 mi NNW 21.9 mph 31.1 mph N/A   Overcast
6:35 PM 44.6 °F 35.3 °F 44.6 °F 100% 30.16 in 4.0 mi NW 26.5 mph - N/A   Overcast
6:55 PM 44.6 °F 35.9 °F 44.6 °F 100% 30.18 in 5.0 mi NNW 23.0 mph 31.1 mph N/A   Overcast
7:15 PM 44.6 °F 35.1 °F 42.8 °F 93% 30.18 in 5.0 mi NW 27.6 mph 33.4 mph N/A   Overcast
7:35 PM 44.6 °F 35.9 °F 42.8 °F 93% 30.18 in 5.0 mi NNW 23.0 mph 31.1 mph N/A   Overcast
7:55 PM 44.6 °F 36.4 °F 42.8 °F 93% 30.19 in 6.0 mi NNW 20.7 mph 32.2 mph N/A   Overcast
8:15 PM 44.6 °F 36.4 °F 42.8 °F 93% 30.19 in 6.0 mi NNW 20.7 mph 28.8 mph N/A   Overcast
8:35 PM 44.6 °F 36.9 °F 44.6 °F 100% 30.19 in - NNW 18.4 mph 26.5 mph N/A   Overcast
8:55 PM 46.4 °F 40.1 °F 44.6 °F 93% 30.19 in 7.0 mi NNW 15.0 mph 23.0 mph N/A   Overcast
9:15 PM 46.4 °F 41.1 °F 44.6 °F 93% 30.18 in 6.0 mi NNW 11.5 mph 20.7 mph N/A   Overcast
9:35 PM 46.4 °F 41.1 °F 46.4 °F 100% 30.18 in 5.0 mi NNW 11.5 mph 18.4 mph N/A   Overcast
9:55 PM 48.2 °F - 46.4 °F 93% 30.18 in 4.0 mi North 11.5 mph 21.9 mph N/A   Overcast
10:15 PM 48.2 °F - 48.2 °F 100% 30.18 in 4.0 mi North 12.7 mph - N/A   Overcast
10:35 PM 50.0 °F - 48.2 °F 94% 30.18 in 4.0 mi North 11.5 mph 19.6 mph N/A   Overcast
10:55 PM 50.0 °F - 48.2 °F 94% 30.17 in 3.0 mi North 8.1 mph 17.3 mph N/A   Overcast
11:15 PM 50.0 °F - 50.0 °F 100% 30.17 in 3.0 mi North 8.1 mph 15.0 mph N/A   Overcast
11:35 PM 50.0 °F - 50.0 °F 100% 30.17 in 3.0 mi NNW 11.5 mph 19.6 mph N/A   Overcast
11:55 PM 50.0 °F - 50.0 °F 100% 30.18 in 3.0 mi NNW 10.4 mph - N/A   Overcast